TimeCDT,TemperatureF,Dew PointF,Humidity,Sea Level PressureIn,VisibilityMPH,Wind Direction,Wind SpeedMPH,Gust SpeedMPH,PrecipitationIn,Events,Conditions,WindDirDegrees,DateUTC
12:41 AM,30.2,23.0,75,30.27,10.0,NNE,9.2,16.1,N/A,,Mostly Cloudy,30,2013-10-28 05:41:00
12:53 AM,30.0,23.0,75,30.32,10.0,NNE,8.1,-,N/A,,Mostly Cloudy,30,2013-10-28 05:53:00
1:53 AM,28.9,21.0,72,30.35,10.0,NNE,11.5,17.3,N/A,,Mostly Cloudy,30,2013-10-28 06:53:00
2:53 AM,28.9,19.9,69,30.38,10.0,NNE,9.2,-,N/A,,Overcast,30,2013-10-28 07:53:00
3:53 AM,28.0,19.0,69,30.41,10.0,NE,8.1,-,N/A,,Overcast,40,2013-10-28 08:53:00
4:15 AM,26.6,19.4,74,30.37,10.0,NE,5.8,-,N/A,,Scattered Clouds,40,2013-10-28 09:15:00
4:53 AM,25.0,18.0,75,30.44,10.0,NE,5.8,-,N/A,,Clear,40,2013-10-28 09:53:00
5:53 AM,24.1,18.0,77,30.47,10.0,NNE,5.8,-,N/A,,Clear,30,2013-10-28 10:53:00
6:53 AM,23.0,17.1,78,30.49,10.0,NE,5.8,-,N/A,,Clear,40,2013-10-28 11:53:00
7:53 AM,21.9,17.1,82,30.52,10.0,NE,4.6,-,N/A,,Clear,40,2013-10-28 12:53:00
8:53 AM,25.0,17.1,72,30.54,10.0,NE,5.8,-,N/A,,Clear,50,2013-10-28 13:53:00
9:53 AM,27.0,17.1,66,30.55,10.0,ENE,9.2,-,N/A,,Clear,60,2013-10-28 14:53:00
10:53 AM,28.9,17.1,61,30.55,10.0,East,9.2,-,N/A,,Clear,90,2013-10-28 15:53:00
11:53 AM,30.9,17.1,57,30.56,10.0,Variable,4.6,-,N/A,,Clear,0,2013-10-28 16:53:00
12:53 PM,33.1,17.1,52,30.54,10.0,Variable,5.8,-,N/A,,Clear,0,2013-10-28 17:53:00
1:53 PM,35.1,17.1,48,30.53,10.0,Variable,4.6,-,N/A,,Clear,0,2013-10-28 18:53:00
2:53 PM,36.0,16.0,44,30.50,10.0,Calm,Calm,-,N/A,,Clear,0,2013-10-28 19:53:00
3:53 PM,36.0,15.1,43,30.49,10.0,East,5.8,-,N/A,,Clear,90,2013-10-28 20:53:00
4:53 PM,35.1,16.0,46,30.50,10.0,East,6.9,-,N/A,,Clear,90,2013-10-28 21:53:00
5:53 PM,34.0,14.0,44,30.49,10.0,ENE,3.5,-,N/A,,Clear,70,2013-10-28 22:53:00
6:53 PM,30.0,15.1,54,30.50,10.0,ENE,4.6,-,N/A,,Clear,60,2013-10-28 23:53:00
7:53 PM,28.9,16.0,58,30.51,10.0,ENE,4.6,-,N/A,,Clear,60,2013-10-29 00:53:00
8:53 PM,28.9,16.0,58,30.49,10.0,NE,5.8,-,N/A,,Clear,50,2013-10-29 01:53:00
9:53 PM,26.1,16.0,66,30.49,10.0,NNE,5.8,-,N/A,,Clear,30,2013-10-29 02:53:00
10:53 PM,26.1,17.1,69,30.49,10.0,NE,4.6,-,N/A,,Clear,50,2013-10-29 03:53:00
11:53 PM,26.1,17.1,69,30.50,10.0,NE,4.6,-,N/A,,Clear,50,2013-10-29 04:53:00